Location: ?????
(31.8092°N, 35.2590°E)
Time: 19:36:19
(UTC+00:00)

Delta 128 - Pass Details

Date: 20 June 2021
Orbit: 608 x 1216 km, 28.0° (Epoch: 23 July)

Event Time Altitude Azimuth Distance (km) Brightness Sun altitude
Rises 18:31:30 0° 268° (W) 2,864 7.6 -18.6°
Reaches altitude 10° 18:33:59 10° 259° (W) 1,946 6.5 -19.0°
Maximum altitude 18:37:59 33° 195° (SSW) 1,027 4.4 -19.6°
Enters shadow 18:38:16 33° 187° (S) 1,035 4.4 -19.6°
